Showing default

COSMOS 448, 5551

Orbit data source: Space-Track

COSMOS 448, 5551 is a payload satellite owned by OKB-10 (CIS) in LEO that was launched on Wed, 13 Oct 1971 UTC via a KOSMOS 11K65M launch vehicle from the Plesetsk Missile And Space Complex (PKMTR). Payload-class satellites include a variety of spacecraft equipped with specific instruments for various scientific and technological missions. These include communications satellites like Starlink; space stations such as the ISS; scientific satellites like the Hubble; Earth observation satellites from companies like Planet Labs, Umbra, and HawkEye 360; GPS; miniature CubeSats for education and research; and military/defense satellites.

Loading next visibility...
Identifier
5551, 1971-086E
Orbit
LEO
Country
Flag of CISCIS
Related business
Manufacturer
OKB-10
Mission
Spacecraft
Bus & Motor
STRELA-1 11F625, Unknown motor
Mass
60 kg wet, 60 kg dry
Launch date (UTC)
1971-10-13 (55 years ago)
Launch vehicle
KOSMOS 11K65M
Launch site
Plesetsk Missile And Space Complex (PKMTR)
Object type
Payload
Rocket body
Debris
Shape & HBR
Unknown
Radar Cross Section
Medium (>0.1 m² and <1 m²)

Expand to show TLE details & history
Last TLE update: 2 days ago

TLE from 2 days ago
0 COSMOS 448
1  5551U 71086E   26171.37845296  .00000006  00000-0  14905-3 0  9997
2  5551  74.0268 136.3334 0049184 187.6794 328.3152 12.46763601488860
Epoch: 2026-06-20T09:04Z
TLE epoch observation values (Epoch: 2026-06-20T09:04:58.335Z)
Latitude
23.33269°
Longitude
-95.56077°
Altitude
1,447.555 km
Speed
7.155 km/s
True Right ascension
20h 37m 06s
True Declination
23° 13' 08"
Sunlit
Object was in daylight at epoch
Visualization orbit readout
Latitude
Unknown
Longitude
Unknown
Altitude
Unknown
Speed
Unknown
Apparent Right ascension
Unknown
Apparent Declination
Unknown
Sunlit
N/A
Visualization observer readout
Local Sidereal Time
00:33:07
Azimuth
Unknown
Elevation
Unknown
Doppler factor
Unknown
Orbital elements
Apogee altitude
1,514.53 km
Perigee altitude
1,437.271 km
Semi-major axis
7,854.037 km
Eccentricity
0.00492
Inclination
74.0268°
RAAN
136.3334°
Arg. of periapsis
187.6794°
True anomaly
328.01761°
Mean anomaly
328.3152°
Eccentric anomaly
328.16656°
Mean motion
3.1182 °/min
Orbital period
115.45 mins
BSTAR
0.00014905
Loading maneuver chart data...
Computing Atmospheric mass density...
Loading historical data...
Loading historical data...
Loading historical data...
Loading historical data...
Loading historical data...
Loading historical data...
Loading historical data...

Documentation

Showing up to 5 results
|